�������l�o���
Date,Time,MP-1(��Sv/h),MP-2(��Sv/h),MP-3(��Sv/h),MP-4(��Sv/h),MP-5(��Sv/h),MP-6(��Sv/h),MP-7(��Sv/h),MP-8(��Sv/h),����,����(m/s),���J
2023/05/09,00:00,0.535,0.780,0.476,0.974,0.668,0.315,0.558,0.531,�k��,3.8,��
2023/05/09,00:10,0.534,0.783,0.476,0.974,0.666,0.315,0.560,0.531,�k��,4.1,��
2023/05/09,00:20,0.534,0.781,0.475,0.976,0.667,0.314,0.560,0.531,�k��,4.7,��
2023/05/09,00:30,0.533,0.783,0.475,0.974,0.666,0.314,0.559,0.533,�k��,6.9,��
2023/05/09,00:40,0.535,0.782,0.475,0.975,0.667,0.316,0.560,0.532,�k��,7.6,��
2023/05/09,00:50,0.534,0.781,0.477,0.974,0.668,0.314,0.559,0.532,�k��,7.1,��
2023/05/09,01:00,0.533,0.781,0.476,0.974,0.668,0.313,0.560,0.532,�k��,6.3,��
2023/05/09,01:10,0.535,0.783,0.474,0.975,0.667,0.315,0.561,0.532,�k��,6.4,��
2023/05/09,01:20,0.534,0.780,0.475,0.974,0.666,0.315,0.560,0.532,�k��,7.5,��
2023/05/09,01:30,0.535,0.782,0.477,0.973,0.667,0.313,0.561,0.532,�k��,7.7,��
2023/05/09,01:40,0.533,0.781,0.476,0.975,0.667,0.315,0.559,0.532,�k��,8.8,��
2023/05/09,01:50,0.534,0.782,0.475,0.974,0.668,0.316,0.560,0.533,�k��,7.7,��
2023/05/09,02:00,0.533,0.782,0.476,0.972,0.668,0.314,0.561,0.532,�k��,7.9,��
2023/05/09,02:10,0.534,0.783,0.476,0.977,0.668,0.316,0.560,0.532,�k��,7.5,��
2023/05/09,02:20,0.534,0.781,0.475,0.975,0.667,0.314,0.561,0.532,�k��,6.9,��
2023/05/09,02:30,0.533,0.782,0.475,0.976,0.668,0.315,0.561,0.534,�k��,6.7,��
2023/05/09,02:40,0.533,0.779,0.477,0.977,0.669,0.315,0.560,0.532,�k��,6.9,��
2023/05/09,02:50,0.534,0.782,0.476,0.974,0.669,0.315,0.561,0.532,�k��,6.0,��
2023/05/09,03:00,0.532,0.781,0.477,0.976,0.668,0.315,0.560,0.533,�k��,6.2,��
2023/05/09,03:10,0.533,0.782,0.476,0.976,0.669,0.314,0.561,0.533,�k��,6.1,��
2023/05/09,03:20,0.534,0.782,0.477,0.975,0.669,0.316,0.560,0.531,�k��,6.3,��
2023/05/09,03:30,0.533,0.780,0.476,0.976,0.670,0.314,0.561,0.533,�k��,6.1,��
2023/05/09,03:40,0.533,0.782,0.477,0.975,0.670,0.314,0.560,0.534,�k�k��,6.0,��
2023/05/09,03:50,0.536,0.783,0.476,0.975,0.668,0.315,0.559,0.532,�k�k��,6.6,��
2023/05/09,04:00,0.534,0.784,0.476,0.977,0.671,0.315,0.560,0.533,�k��,6.0,��
2023/05/09,04:10,0.533,0.782,0.475,0.975,0.669,0.315,0.560,0.533,�k��,5.3,��
2023/05/09,04:20,0.533,0.780,0.474,0.974,0.669,0.315,0.559,0.534,�k��,5.3,��
2023/05/09,04:30,0.535,0.782,0.476,0.975,0.671,0.314,0.560,0.532,�k��,5.1,��
2023/05/09,04:40,0.533,0.781,0.475,0.976,0.669,0.314,0.560,0.532,�k��,4.7,��
2023/05/09,04:50,0.534,0.781,0.475,0.974,0.672,0.314,0.559,0.533,�k��,4.2,��
2023/05/09,05:00,0.535,0.782,0.476,0.977,0.669,0.315,0.560,0.531,�k��,4.4,��
2023/05/09,05:10,0.535,0.783,0.476,0.974,0.669,0.314,0.560,0.532,�k�k��,4.3,��
2023/05/09,05:20,0.534,0.781,0.477,0.975,0.670,0.315,0.561,0.534,�k��,3.7,��
2023/05/09,05:30,0.534,0.783,0.476,0.977,0.670,0.315,0.559,0.532,�k��,4.1,��
2023/05/09,05:40,0.533,0.782,0.476,0.975,0.671,0.316,0.560,0.532,�k��,3.7,��
2023/05/09,05:50,0.533,0.781,0.478,0.976,0.670,0.314,0.560,0.531,�k��,4.1,��
2023/05/09,06:00,0.535,0.782,0.477,0.976,0.671,0.316,0.561,0.533,�k�k��,4.6,��
2023/05/09,06:10,0.534,0.783,0.476,0.975,0.671,0.315,0.561,0.533,�k��,4.4,��
2023/05/09,06:20,0.535,0.782,0.476,0.976,0.672,0.315,0.562,0.534,�k�k��,4.4,��
2023/05/09,06:30,0.534,0.784,0.477,0.978,0.671,0.315,0.561,0.532,�k��,4.1,��
2023/05/09,06:40,0.536,0.782,0.476,0.979,0.671,0.316,0.562,0.531,�k�k��,3.8,��
2023/05/09,06:50,0.535,0.785,0.477,0.976,0.672,0.315,0.562,0.533,�k�k��,3.4,��
2023/05/09,07:00,0.535,0.784,0.478,0.977,0.671,0.316,0.561,0.533,�k�k��,2.6,��
2023/05/09,07:10,0.536,0.785,0.477,0.978,0.671,0.315,0.562,0.534,�k,1.7,��
2023/05/09,07:20,0.535,0.785,0.478,0.976,0.672,0.315,0.562,0.533,�k,1.5,��
2023/05/09,07:30,0.536,0.786,0.479,0.978,0.674,0.316,0.563,0.534,�k,1.1,��
2023/05/09,07:40,0.535,0.784,0.477,0.977,0.673,0.314,0.561,0.533,�k��,2.0,��
2023/05/09,07:50,0.537,0.784,0.478,0.976,0.673,0.314,0.562,0.534,�k�k��,1.5,��
2023/05/09,08:00,0.538,0.782,0.479,0.977,0.675,0.315,0.563,0.533,��,0.9,��
2023/05/09,08:10,0.538,0.783,0.476,0.979,0.675,0.315,0.564,0.533,���k��,0.9,��
2023/05/09,08:20,0.538,0.784,0.477,0.978,0.674,0.315,0.562,0.534,�k�k��,1.1,��
2023/05/09,08:30,0.539,0.784,0.478,0.980,0.673,0.313,0.564,0.532,���k��,1.2,��
2023/05/09,08:40,0.538,0.784,0.478,0.978,0.675,0.314,0.562,0.533,��,1.7,��
2023/05/09,08:50,0.539,0.785,0.475,0.978,0.674,0.315,0.562,0.531,��,2.3,��
2023/05/09,09:00,0.538,0.784,0.476,0.979,0.672,0.315,0.562,0.531,��,2.3,��
2023/05/09,09:10,0.537,0.786,0.477,0.978,0.675,0.314,0.560,0.530,���쓌,2.5,��
2023/05/09,09:20,0.538,0.785,0.476,0.980,0.674,0.314,0.560,0.531,���쓌,2.3,��
2023/05/09,09:30,0.537,0.785,0.477,0.977,0.675,0.314,0.561,0.531,��,2.5,��
2023/05/09,09:40,0.539,0.786,0.480,0.978,0.675,0.313,0.560,0.530,�쓌,3.1,��
2023/05/09,09:50,0.537,0.786,0.478,0.980,0.676,0.314,0.561,0.533,��,2.9,��
2023/05/09,10:00,0.537,0.788,0.480,0.979,0.677,0.314,0.560,0.532,��,2.5,��
2023/05/09,10:10,0.539,0.787,0.480,0.979,0.677,0.315,0.561,0.533,���쓌,2.8,��
2023/05/09,10:20,0.539,0.788,0.479,0.980,0.677,0.316,0.561,0.534,��,2.3,��
2023/05/09,10:30,0.540,0.789,0.480,0.978,0.676,0.314,0.562,0.531,���쓌,2.9,��
2023/05/09,10:40,0.539,0.787,0.480,0.980,0.676,0.315,0.562,0.533,���쓌,3.2,��
2023/05/09,10:50,0.541,0.789,0.480,0.981,0.679,0.315,0.561,0.532,�쓌,3.8,��
2023/05/09,11:00,0.540,0.790,0.480,0.981,0.678,0.315,0.563,0.533,���쓌,3.3,��
2023/05/09,11:10,0.539,0.788,0.480,0.982,0.676,0.315,0.562,0.534,�쓌,2.9,��
2023/05/09,11:20,0.542,0.791,0.480,0.983,0.678,0.315,0.563,0.534,�쓌,3.9,��
2023/05/09,11:30,0.542,0.790,0.480,0.982,0.678,0.315,0.562,0.533,���쓌,4.6,��
2023/05/09,11:40,0.540,0.791,0.481,0.981,0.680,0.316,0.564,0.533,���쓌,4.5,��
2023/05/09,11:50,0.543,0.790,0.480,0.979,0.677,0.316,0.563,0.533,�쓌,4.7,��
2023/05/09,12:00,0.542,0.789,0.481,0.978,0.680,0.316,0.563,0.536,���쓌,5.1,��
2023/05/09,12:10,0.541,0.792,0.481,0.978,0.680,0.317,0.563,0.533,�쓌,4.8,��
2023/05/09,12:20,0.542,0.793,0.481,0.980,0.679,0.315,0.564,0.535,��쓌,4.5,��
2023/05/09,12:30,0.543,0.794,0.481,0.980,0.681,0.315,0.563,0.534,��쓌,4.4,��
2023/05/09,12:40,0.542,0.793,0.482,0.984,0.680,0.315,0.563,0.535,��쓌,5.5,��
2023/05/09,12:50,0.542,0.791,0.482,0.984,0.680,0.317,0.564,0.534,�쓌,6.1,��
2023/05/09,13:00,0.541,0.794,0.481,0.981,0.679,0.315,0.563,0.535,��쓌,6.1,��
2023/05/09,13:10,0.543,0.794,0.482,0.982,0.682,0.317,0.565,0.536,��쓌,5.8,��
2023/05/09,13:20,0.545,0.795,0.481,0.984,0.682,0.317,0.564,0.535,��쓌,6.6,��
2023/05/09,13:30,0.544,0.795,0.482,0.984,0.682,0.317,0.564,0.535,��쓌,5.4,��
2023/05/09,13:40,0.543,0.795,0.483,0.983,0.682,0.317,0.565,0.534,��쓌,5.6,��
2023/05/09,13:50,0.543,0.794,0.483,0.983,0.682,0.318,0.565,0.534,��쓌,5.4,��
2023/05/09,14:00,0.543,0.794,0.482,0.984,0.685,0.317,0.565,0.534,��쓌,5.8,��
2023/05/09,14:10,0.543,0.796,0.482,0.984,0.686,0.318,0.564,0.535,��쓌,5.3,��
2023/05/09,14:20,0.543,0.796,0.483,0.984,0.684,0.317,0.565,0.534,��쓌,5.5,��
2023/05/09,14:30,0.543,0.796,0.484,0.984,0.684,0.317,0.564,0.535,��쓌,5.8,��
2023/05/09,14:40,0.541,0.798,0.484,0.981,0.684,0.316,0.563,0.535,�쓌,6.5,��
2023/05/09,14:50,0.543,0.794,0.484,0.980,0.684,0.317,0.564,0.535,��쓌,5.6,��
2023/05/09,15:00,0.543,0.799,0.482,0.982,0.683,0.317,0.564,0.534,��쓌,6.0,��
2023/05/09,15:10,0.543,0.796,0.483,0.983,0.686,0.317,0.564,0.535,��쓌,6.0,��
2023/05/09,15:20,0.543,0.795,0.483,0.984,0.685,0.317,0.564,0.535,��쓌,6.0,��
2023/05/09,15:30,0.544,0.797,0.482,0.980,0.685,0.317,0.564,0.535,��쓌,5.3,��
2023/05/09,15:40,0.544,0.796,0.483,0.982,0.686,0.316,0.564,0.536,��쓌,5.2,��
2023/05/09,15:50,0.543,0.798,0.483,0.983,0.685,0.318,0.564,0.535,��쓌,6.0,��
2023/05/09,16:00,0.545,0.795,0.483,0.983,0.685,0.318,0.563,0.535,��쓌,5.8,��
2023/05/09,16:10,0.542,0.798,0.483,0.983,0.685,0.317,0.564,0.534,��쓌,6.0,��
2023/05/09,16:20,0.544,0.798,0.483,0.982,0.686,0.317,0.564,0.534,��쓌,4.9,��
2023/05/09,16:30,0.544,0.797,0.484,0.982,0.687,0.318,0.563,0.534,��쓌,5.8,��
2023/05/09,16:40,0.544,0.798,0.483,0.984,0.687,0.317,0.563,0.534,��쓌,5.1,��
2023/05/09,16:50,0.543,0.800,0.484,0.982,0.686,0.317,0.564,0.534,��쓌,5.8,��
2023/05/09,17:00,0.543,0.798,0.484,0.983,0.685,0.318,0.564,0.535,��쓌,4.7,��
2023/05/09,17:10,0.543,0.799,0.483,0.983,0.687,0.320,0.563,0.535,��쓌,5.4,��
2023/05/09,17:20,0.543,0.802,0.485,0.985,0.686,0.320,0.564,0.536,��쓌,4.7,��
2023/05/09,17:30,0.542,0.801,0.484,0.986,0.685,0.319,0.564,0.537,��쓌,5.4,��
2023/05/09,17:40,0.542,0.802,0.484,0.982,0.687,0.320,0.563,0.539,��쓌,4.5,��
2023/05/09,17:50,0.543,0.802,0.482,0.985,0.684,0.320,0.564,0.538,��쓌,4.5,��
2023/05/09,18:00,0.541,0.802,0.484,0.986,0.685,0.319,0.564,0.537,��,4.5,��
2023/05/09,18:10,0.545,0.804,0.484,0.987,0.686,0.320,0.567,0.537,��,5.4,��
2023/05/09,18:20,0.545,0.802,0.483,0.988,0.690,0.320,0.564,0.537,��,6.1,��
2023/05/09,18:30,0.545,0.801,0.484,0.989,0.689,0.319,0.563,0.537,��,6.1,��
2023/05/09,18:40,0.545,0.802,0.483,0.986,0.689,0.319,0.564,0.537,��,6.2,��
2023/05/09,18:50,0.543,0.802,0.486,0.985,0.689,0.321,0.565,0.538,��,5.7,��
2023/05/09,19:00,0.545,0.802,0.486,0.989,0.689,0.319,0.565,0.536,��,5.9,��
2023/05/09,19:10,0.546,0.802,0.486,0.985,0.690,0.319,0.564,0.536,��,5.2,��
2023/05/09,19:20,0.546,0.801,0.486,0.987,0.688,0.319,0.565,0.536,��,5.2,��
2023/05/09,19:30,0.546,0.802,0.486,0.987,0.687,0.318,0.566,0.537,��쐼,5.0,��
2023/05/09,19:40,0.545,0.803,0.486,0.989,0.687,0.318,0.565,0.535,��,5.6,��
2023/05/09,19:50,0.545,0.801,0.485,0.988,0.689,0.319,0.567,0.536,��쐼,5.3,��
2023/05/09,20:00,0.544,0.801,0.486,0.988,0.688,0.318,0.565,0.537,��쐼,4.9,��
2023/05/09,20:10,0.545,0.802,0.486,0.987,0.690,0.319,0.566,0.536,��쐼,4.7,��
2023/05/09,20:20,0.545,0.801,0.486,0.990,0.689,0.319,0.566,0.537,��쐼,4.6,��
2023/05/09,20:30,0.545,0.800,0.487,0.989,0.689,0.318,0.565,0.536,��쐼,4.1,��
2023/05/09,20:40,0.543,0.801,0.486,0.988,0.690,0.319,0.567,0.537,��쐼,4.5,��
2023/05/09,20:50,0.544,0.803,0.486,0.986,0.690,0.319,0.567,0.537,��쐼,4.7,��
2023/05/09,21:00,0.546,0.800,0.486,0.986,0.691,0.319,0.568,0.536,��쐼,4.8,��
2023/05/09,21:10,0.545,0.800,0.485,0.988,0.689,0.318,0.567,0.537,��,5.5,��
2023/05/09,21:20,0.545,0.801,0.484,0.987,0.691,0.319,0.568,0.537,��쐼,5.3,��
2023/05/09,21:30,0.545,0.802,0.485,0.988,0.691,0.318,0.568,0.536,��쐼,5.2,��
2023/05/09,21:40,0.544,0.802,0.484,0.988,0.690,0.319,0.567,0.536,��쐼,5.1,��
2023/05/09,21:50,0.546,0.802,0.485,0.990,0.688,0.320,0.566,0.537,��,5.5,��
2023/05/09,22:00,0.546,0.800,0.484,0.987,0.689,0.319,0.567,0.536,��쐼,5.4,��
2023/05/09,22:10,0.544,0.800,0.486,0.989,0.689,0.319,0.567,0.537,��,5.4,��
2023/05/09,22:20,0.545,0.801,0.484,0.988,0.691,0.319,0.567,0.535,��,5.6,��
2023/05/09,22:30,0.545,0.800,0.486,0.989,0.691,0.319,0.568,0.538,��쐼,5.2,��
2023/05/09,22:40,0.545,0.799,0.487,0.990,0.689,0.318,0.567,0.535,��쐼,4.4,��
2023/05/09,22:50,0.545,0.802,0.484,0.990,0.692,0.318,0.567,0.537,��쐼,4.5,��
2023/05/09,23:00,0.542,0.800,0.485,0.988,0.689,0.319,0.568,0.538,��쐼,4.5,��
2023/05/09,23:10,0.545,0.799,0.487,0.988,0.689,0.319,0.567,0.536,��쐼,4.4,��
2023/05/09,23:20,0.544,0.800,0.484,0.990,0.689,0.318,0.567,0.536,��쐼,4.2,��
2023/05/09,23:30,0.545,0.800,0.484,0.987,0.691,0.319,0.567,0.537,��쐼,4.5,��
2023/05/09,23:40,0.545,0.800,0.487,0.988,0.689,0.319,0.568,0.536,��쐼,4.9,��
2023/05/09,23:50,0.543,0.800,0.486,0.989,0.691,0.319,0.566,0.537,��쐼,4.7,��
